Canberra, Australia

6:57 PM AEDT on January 16, 2018 (GMT +1100)
Canberra

Weather History for YSCB - September, 2013

Change the Weather History Date:

Friday, September 27, 2013

  Actual Average Record
Temperature  
Mean Temperature 48 °F -  
Max Temperature 66 °F 66 °F - ()
Min Temperature 31 °F 42 °F - ()
Degree Days  
Heating Degree Days 16    
Moisture  
Dew Point 32 °F    
Average Humidity 50    
Maximum Humidity 87    
Minimum Humidity 20    
Precipitation  
Precipitation 0.00 in 0.08 in - ()
Sea Level Pressure  
Sea Level Pressure 30.04 in    
Wind  
Wind Speed 8 mph ()    
Max Wind Speed 20 mph    
Max Gust Speed -    
Visibility 6.2 miles    
Events      
T = Trace of Precipitation, MM = Missing Value Source: Averaged Metar Reports

Daily Weather History Graph

Daily Weather History Graph

Search for Another Location

Airport or City:

Trip Planner

Search our weather history database for the weather conditions in past years. The results will help you decide how hot, cold, wet, or windy it might be!

Date:

Astronomy

Sep. 27, 2013 Rise Set
Actual Time 5:46 AM AEST 6:03 PM AEST
Civil Twilight 5:20 AM AEST 6:28 PM AEST
Nautical Twilight 4:50 AM AEST 6:58 PM AEST
Astronomical Twilight 4:20 AM AEST 7:28 PM AEST
Moon 12:29 AM AEST (9/27) 10:53 AM AEST (9/27)
Length of Visible Light 13h 08m
Length of Day
12h 17m
Waning Gibbous, 51% of the Moon is Illuminated
Sep 27
Waning Gibbous
Sep 27
Last Quarter
Oct 5
New
Oct 12
First Quarter
Oct 19
Full

Hourly Weather History & Observations

Time (AEST) Temp. Windchill Dew Point Humidity Pressure Visibility Wind Dir Wind Speed Gust Speed Precip Events Conditions
12:00 AM 47 °F - 31 °F 41% 30.05 in - WNW 11.5 mph - -  
12:00 AM 46.4 °F 41.1 °F 30.2 °F 53% 30.04 in 6.2 mi WNW 11.5 mph - N/A   Unknown
12:30 AM 46.4 °F 41.9 °F 30.2 °F 53% 30.04 in 6.2 mi NW 9.2 mph - N/A   Unknown
1:00 AM 45 °F - 31 °F 46% 30.05 in - NW 8.1 mph - -  
1:00 AM 44.6 °F 40.2 °F 30.2 °F 57% 30.04 in 6.2 mi NW 8.1 mph - N/A   Unknown
1:30 AM 44.6 °F 40.2 °F 30.2 °F 57% 30.04 in 6.2 mi North 8.1 mph - N/A   Unknown
2:00 AM 44.6 °F 39.7 °F 30.2 °F 57% 30.04 in 6.2 mi NNW 9.2 mph - N/A   Unknown
2:30 AM 42.8 °F 36.6 °F 30.2 °F 61% 30.04 in 6.2 mi NNW 11.5 mph - N/A   Unknown
3:00 AM 43 °F - 31 °F 50% 30.04 in - NW 11.5 mph - -  
3:00 AM 42.8 °F 36.6 °F 30.2 °F 61% 30.04 in 6.2 mi NW 11.5 mph - N/A   Unknown
3:30 AM 41.0 °F 36.4 °F 30.2 °F 65% 30.04 in 6.2 mi WNW 6.9 mph - N/A   Unknown
4:00 AM 39 °F - 29 °F 58% 30.06 in - NE 6.9 mph - -  
4:00 AM 39.2 °F 34.2 °F 30.2 °F 70% 30.04 in 6.2 mi NE 6.9 mph - N/A   Unknown
4:30 AM 37.4 °F 33.8 °F 28.4 °F 70% 30.04 in - NNE 4.6 mph - N/A   Clear
5:00 AM 37.4 °F 32.8 °F 28.4 °F 70% 30.06 in - NNE 5.8 mph - N/A   Clear
5:30 AM 35.6 °F - 26.6 °F 70% 30.06 in - Calm Calm - N/A   Clear
6:00 AM 32 °F - 26 °F 71% 30.11 in - SSW 4.6 mph - -  
6:00 AM 32.0 °F 27.5 °F 26.6 °F 80% 30.09 in - SSW 4.6 mph - N/A   Clear
6:30 AM 33.8 °F 29.6 °F 30.2 °F 87% 30.09 in - South 4.6 mph - N/A   Clear
7:00 AM 40 °F - 34 °F 71% 30.12 in - SSW 3.5 mph - -  
7:00 AM 41.0 °F 39.0 °F 33.8 °F 76% 30.09 in - SSW 3.5 mph - N/A   Clear
7:30 AM 44.6 °F - 35.6 °F 71% 30.12 in - South 1.2 mph - N/A   Clear
8:00 AM 48.2 °F - 33.8 °F 58% 30.12 in - NNW 4.6 mph - N/A   Clear
8:30 AM 50.0 °F - 33.8 °F 54% 30.12 in - SW 4.6 mph - N/A   Clear
9:00 AM 51 °F - 32 °F 36% 30.14 in - East 3.5 mph - -  
9:00 AM 51.8 °F - 32.0 °F 47% 30.12 in - East 3.5 mph - N/A   Clear
9:30 AM 53.6 °F - 33.8 °F 47% 30.12 in - WSW 3.5 mph - N/A   Clear
10:00 AM 55 °F - 34 °F 32% 30.12 in - North 6.9 mph - -  
10:00 AM 55.4 °F - 33.8 °F 44% 30.09 in - North 6.9 mph - N/A   Clear
10:30 AM 57.2 °F - 35.6 °F 44% 30.09 in - North 5.8 mph - N/A   Clear
11:00 AM 60.8 °F - 35.6 °F 39% 30.06 in - NNW 5.8 mph - N/A   Clear
11:30 AM 62.6 °F - 32.0 °F 32% 30.06 in - NW 6.9 mph - N/A   Clear
12:00 PM 62 °F - 31 °F 20% 30.07 in - North 8.1 mph - -  
12:00 PM 62.6 °F - 32.0 °F 32% 30.04 in - North 8.1 mph - N/A   Clear
12:30 PM 64.4 °F - 32.0 °F 30% 30.04 in - NNW 17.3 mph - N/A   Clear
1:00 PM 64 °F - 36 °F 24% 30.05 in - NNW 13.8 mph - -  
1:00 PM 64.4 °F - 35.6 °F 34% 30.04 in - NNW 13.8 mph - N/A   Clear
1:30 PM 64.4 °F - 35.6 °F 34% 30.04 in - North 12.7 mph - N/A   Clear
2:00 PM 66.2 °F - 37.4 °F 35% 30.01 in - NNW 16.1 mph - N/A   Clear
2:30 PM 66.2 °F - 37.4 °F 35% 30.01 in - NNW 19.6 mph - N/A   Clear
3:00 PM 66 °F - 39 °F 25% 30.01 in - NNW 17.3 mph - -  
3:00 PM 66.2 °F - 39.2 °F 37% 29.98 in - NNW 17.3 mph - N/A   Clear
3:30 PM 66.2 °F - 37.4 °F 35% 29.98 in - NNW 16.1 mph - N/A   Clear
4:00 PM 65 °F - 34 °F 21% 29.99 in - NNW 16.1 mph - -  
4:00 PM 64.4 °F - 33.8 °F 32% 29.98 in - NNW 16.1 mph - N/A   Clear
4:30 PM 64.4 °F - 33.8 °F 32% 29.98 in - North 18.4 mph - N/A   Clear
5:00 PM 62.6 °F - 33.8 °F 34% 29.98 in - North 13.8 mph - N/A   Clear
5:30 PM 60.8 °F - 32.0 °F 34% 29.98 in - North 15.0 mph - N/A   Clear
6:00 PM 57 °F - 29 °F 22% 29.99 in - NE 9.2 mph - -  
6:00 PM 57.2 °F - 28.4 °F 33% 29.98 in - NE 9.2 mph - N/A   Clear
6:30 PM 55.4 °F - 28.4 °F 36% 29.98 in - North 5.8 mph - N/A   Clear
7:00 PM 52 °F - 29 °F 28% 30.00 in - North 6.9 mph - -  
7:00 PM 51.8 °F - 28.4 °F 41% 29.98 in - North 6.9 mph - N/A   Clear
7:30 PM 50.0 °F - 30.2 °F 47% 29.98 in - NNE 5.8 mph - N/A   Clear
8:00 PM 44.6 °F - 30.2 °F 57% 29.98 in - ENE 1.2 mph - N/A   Clear
8:30 PM 44.6 °F 40.7 °F 33.8 °F 66% 29.98 in 6.2 mi ENE 6.9 mph - N/A   Unknown
9:00 PM 44 °F - 34 °F 58% 30.00 in - WSW 3.5 mph - -  
9:00 PM 44.6 °F 43.1 °F 33.8 °F 66% 29.98 in 6.2 mi WSW 3.5 mph - N/A   Unknown
9:30 PM 42.8 °F 40.1 °F 33.8 °F 70% 29.98 in 6.2 mi SE 4.6 mph - N/A   Unknown
10:00 PM 40 °F - 31 °F 61% 30.00 in - SW 3.5 mph - -  
10:00 PM 39.2 °F 37.0 °F 32.0 °F 75% 29.98 in 6.2 mi SW 3.5 mph - N/A   Unknown
10:30 PM 39.2 °F - 32.0 °F 75% 29.95 in 6.2 mi WSW 1.2 mph - N/A   Unknown
11:00 PM 35.6 °F 32.8 °F 28.4 °F 75% 29.95 in 6.2 mi NW 3.5 mph - N/A   Unknown
11:30 PM 35.6 °F - 30.2 °F 81% 29.98 in 6.2 mi Calm Calm - N/A   Unknown